GW6694 Weather Reports


time (UTC)temp
F
wind
direction
speed
knots
gust
knots
rain 1hr
in
rain 24hr
in
rain mn
in
humidity
%
barometer
mb
20260510193905 90 349 2.6 7.0 0.00 0.00 0.00 59 1019.3
20260510193406 90 300 2.6 7.0 0.00 0.00 0.00 56 1019.3
20260510192906 91 291 2.6 7.8 0.00 0.00 0.00 57 1019.3
20260510192405 90 317 6.1 7.8 0.00 0.00 0.00 58 1019.1
20260510191906 90 309 7.8 10.4 0.00 0.00 0.00 59 1019.1
20260510191406 90 292 8.7 10.4 0.00 0.00 0.00 59 1019.3
20260510190905 91 282 7.0 10.4 0.00 0.00 0.00 57 1019.0
20260510190406 90 281 4.3 10.4 0.00 0.00 0.00 59 1019.0
20260510185906 90 303 7.0 12.2 0.00 0.00 0.00 59 1019.0
20260510185405 89 247 7.8 12.2 0.00 0.00 0.00 59 1019.0
20260510183906 92 267 8.7 8.7 0.00 0.00 0.00 55 1019.0
20260510183406 92 263 2.6 8.7 0.00 0.00 0.00 54 1019.0
20260510182906 91 318 6.1 8.7 0.00 0.00 0.00 55 1019.0
20260510182406 91 250 1.7 10.4 0.00 0.00 0.00 58 1019.0
20260510181905 90 299 5.2 10.4 0.00 0.00 0.00 58 1019.0
20260510181405 91 346 8.7 8.7 0.00 0.00 0.00 56 1019.0
20260510180905 92 339 8.7 8.7 0.00 0.00 0.00 58 1019.3
20260510175906 92 298 5.2 7.8 0.00 0.00 0.00 56 1019.0
20260510175406 92 320 7.0 11.3 0.00 0.00 0.00 55 1019.3
20260510174905 92 320 9.6 11.3 0.00 0.00 0.00 53 1019.3
20260510174405 92 328 7.8 10.4 0.00 0.00 0.00 52 1019.3
20260510173907 93 5 7.0 10.4 0.00 0.00 0.00 54 1019.3
20260510173405 94 0 7.0 10.4 0.00 0.00 0.00 55 1019.3
20260510172406 93 321 6.1 12.2 0.00 0.00 0.00 52 1019.3
20260510171405 91 325 8.7 10.4 0.00 0.00 0.00 53 1019.3
20260510170905 93 276 7.8 7.8 0.00 0.00 0.00 49 1019.3
20260510170406 92 176 7.8 10.4 0.00 0.00 0.00 49 1019.3
20260510165905 95 296 8.7 10.4 0.00 0.00 0.00 47 1019.6
20260510165406 96 305 1.7 5.2 0.00 0.00 0.00 48 1019.3
20260510164906 95 328 5.2 7.0 0.00 0.00 0.00 48 1019.6
20260510164406 94 300 6.1 7.0 0.00 0.00 0.00 48 1019.6
20260510163906 94 327 0.9 7.0 0.00 0.00 0.00 49 1019.6
20260510163405 94 337 2.6 7.0 0.00 0.00 0.00 50 1019.6
20260510162905 94 313 5.2 5.2 0.00 0.00 0.00 51 1019.6
20260510162405 92 6 1.7 5.2 0.00 0.00 0.00 56 1020.0
20260510161905 91 181 1.7 6.1 0.00 0.00 0.00 56 1020.0
20260510160905 91 272 4.3 6.1 0.00 0.00 0.00 55 1020.0
20260510160405 94 268 2.6 6.1 0.00 0.00 0.00 51 1020.0
20260510155905 95 342 0.9 2.6 0.00 0.00 0.00 51 1020.0
20260510155405 94 240 2.6 2.6 0.00 0.00 0.00 53 1020.0
20260510154405 92 228 2.6 5.2 0.00 0.00 0.00 54 1020.0
20260510153905 93 309 2.6 5.2 0.00 0.00 0.00 54 1019.6
20260510152905 93 23 1.7 5.2 0.00 0.00 0.00 56 1020.0
20260510152405 94 120 2.6 5.2 0.00 0.00 0.00 54 1020.0
20260510151905 94 291 0.9 6.1 0.00 0.00 0.00 56 1020.0
20260510151405 93 341 2.6 6.1 0.00 0.00 0.00 55 1020.0
20260510150905 92 12 0.9 5.2 0.00 0.00 0.00 59 1020.0
20260510145905 91 341 1.7 6.1 0.00 0.00 0.00 61 1020.0
20260510145405 91 315 2.6 6.1 0.00 0.00 0.00 61 1020.0
20260510144905 91 22 0.9 6.1 0.00 0.00 0.00 62 1020.3
20260510144405 90 140 0.9 5.2 0.00 0.00 0.00 61 1020.1
20260510143905 90 283 1.7 7.0 0.00 0.00 0.00 61 1020.0
20260510142905 90 320 3.5 4.3 0.00 0.00 0.00 61 1020.0
20260510141905 89 21 0.9 2.6 0.00 0.00 0.00 63 1020.0
20260510141405 89 297 1.7 2.6 0.00 0.00 0.00 64 1020.0
20260510140905 87 26 0.9 4.3 0.00 0.00 0.00 66 1020.0
20260510140405 87 350 0.0 4.3 0.00 0.00 0.00 66 1019.6
20260510135905 87 63 2.6 5.2 0.00 0.00 0.00 66 1019.6
20260510135405 86 80 1.7 5.2 0.00 0.00 0.00 67 1019.6
20260510134904 85 0 0.0 0.9 0.00 0.00 0.00 70 1019.6
20260510134405 84 341 0.0 1.7 0.00 0.00 0.00 72 1019.6
20260510133904 84 82 1.7 1.7 0.00 0.00 0.00 72 1019.6
20260510133405 83 258 1.7 1.7 0.00 0.00 0.00 74 1019.6
20260510132905 81 340 0.0 0.9 0.00 0.00 0.00 78 1019.6
20260510132405 80 12 0.0 1.7 0.00 0.00 0.00 79 1019.6
20260510131905 80 93 1.7 1.7 0.00 0.00 0.00 79 1019.6
20260510131405 80 19 0.0 1.7 0.00 0.00 0.00 79 1019.6
20260510130405 80 69 0.9 1.7 0.00 0.00 0.00 79 1019.6
20260510125405 79 324 0.9 1.7 0.00 0.00 0.00 80 1019.3
20260510124905 79 16 0.9 0.9 0.00 0.00 0.00 81 1019.3
20260510124405 79 354 0.0 1.7 0.00 0.00 0.00 82 1019.3
20260510123905 78 280 0.9 1.7 0.00 0.00 0.00 85 1019.3
20260510123405 77 76 0.9 0.9 0.00 0.00 0.00 89 1019.3
20260510122905 76 346 0.0 0.0 0.00 0.00 0.00 91 1019.3
20260510122405 76 356 0.0 0.0 0.00 0.00 0.00 93 1019.3
20260510121905 75 4 0.0 0.0 0.00 0.00 0.00 94 1019.0
20260510121405 75 346 0.0 0.9 0.00 0.00 0.00 95 1019.0
20260510120905 74 320 0.0 0.9 0.00 0.00 0.00 95 1019.0
20260510120405 74 347 0.0 0.0 0.00 0.00 0.00 96 1019.0
20260510115905 74 328 0.0 0.0 0.00 0.00 0.00 96 1019.0
20260510115405 73 1 0.0 0.0 0.00 0.00 0.00 96 1019.0
20260510114905 72 349 0.0 0.0 0.00 0.00 0.00 96 1018.6
20260510113905 71 0 0.0 0.0 0.00 0.00 0.00 96 1018.6
20260510113404 71 351 0.0 0.0 0.00 0.00 0.00 96 1018.6
20260510112905 71 344 0.0 0.0 0.00 0.00 0.00 96 1018.5
20260510112405 71 337 0.0 0.0 0.00 0.00 0.00 96 1018.3
20260510111904 70 344 0.0 0.0 0.00 0.00 0.00 96 1018.3
20260510111405 70 323 0.0 0.0 0.00 0.00 0.00 96 1018.3
20260510110405 70 341 0.0 0.0 0.00 0.00 0.00 95 1017.9
20260510105405 70 339 0.0 0.0 0.00 0.00 0.00 95 1017.9
20260510104904 70 341 0.0 0.0 0.00 0.00 0.00 95 1017.9
20260510104405 70 338 0.0 0.0 0.00 0.00 0.00 95 1017.9
20260510103905 70 341 0.0 0.0 0.00 0.00 0.00 95 1017.6
20260510103404 70 342 0.0 0.0 0.00 0.00 0.00 95 1017.9
20260510102904 71 334 0.0 0.0 0.00 0.00 0.00 95 1017.6
20260510102405 71 333 0.0 0.0 0.00 0.00 0.00 95 1017.6
20260510101404 71 343 0.0 0.0 0.00 0.00 0.00 94 1017.6
20260510100904 71 337 0.0 0.0 0.00 0.00 0.00 94 1017.6
20260510100404 71 330 0.0 0.0 0.00 0.00 0.00 94 1017.3
20260510095405 71 338 0.0 0.0 0.00 0.00 0.00 94 1017.3
20260510094905 71 338 0.0 0.0 0.00 0.00 0.00 94 1017.3
20260510094404 71 343 0.0 0.0 0.00 0.00 0.00 94 1017.3
20260510093904 71 329 0.0 0.0 0.00 0.00 0.00 94 1017.3
20260510093404 71 343 0.0 0.0 0.00 0.00 0.00 94 1016.9
20260510092904 71 348 0.0 0.0 0.00 0.00 0.00 94 1016.9
20260510091905 72 341 0.0 0.0 0.00 0.00 0.00 93 1016.9
20260510091404 72 342 0.0 0.0 0.00 0.00 0.00 93 1016.9
20260510090404 72 336 0.0 0.0 0.00 0.00 0.00 93 1016.9
20260510085905 72 347 0.0 0.0 0.00 0.00 0.00 93 1016.9
20260510085404 72 331 0.0 0.0 0.00 0.00 0.00 93 1016.9
20260510084905 72 333 0.0 0.0 0.00 0.00 0.00 93 1016.6
20260510084405 72 347 0.0 0.0 0.00 0.00 0.00 93 1016.6
20260510083904 73 338 0.0 0.0 0.00 0.00 0.00 93 1016.6
20260510083404 73 342 0.0 0.0 0.00 0.00 0.00 93 1016.6
20260510082904 73 346 0.0 0.0 0.00 0.00 0.00 93 1016.6
20260510082404 73 342 0.0 0.0 0.00 0.00 0.00 92 1016.6
20260510081904 73 340 0.0 0.0 0.00 0.00 0.00 92 1016.5
20260510081404 73 340 0.0 0.0 0.00 0.00 0.00 92 1016.3
20260510080904 73 344 0.0 0.0 0.00 0.00 0.00 92 1016.3
20260510080404 73 344 0.0 0.0 0.00 0.00 0.00 92 1016.3
20260510075404 73 343 0.0 0.0 0.00 0.00 0.00 92 1016.6
20260510074904 73 344 0.0 0.0 0.00 0.00 0.00 92 1016.6
20260510074405 73 339 0.0 0.0 0.00 0.00 0.00 92 1016.6
20260510073904 73 334 0.0 0.0 0.00 0.00 0.00 92 1016.6
20260510073404 73 353 0.0 0.0 0.00 0.00 0.00 92 1016.6
20260510072904 73 341 0.0 0.0 0.00 0.00 0.00 92 1016.6
20260510072404 74 346 0.0 0.9 0.00 0.00 0.00 92 1016.9
20260510071404 74 344 0.0 0.0 0.00 0.00 0.00 91 1016.9
20260510070904 74 342 0.0 0.0 0.00 0.00 0.00 91 1016.9
20260510070404 74 344 0.0 0.0 0.00 0.00 0.00 91 1016.9
20260510065904 74 345 0.0 0.0 0.00 0.00 0.00 91 1016.9
20260510065405 74 1 0.0 0.0 0.00 0.00 0.00 91 1017.2
20260510064904 74 1 0.0 0.0 0.00 0.00 0.00 91 1017.3
20260510064404 74 357 0.0 0.0 0.00 0.00 0.00 91 1017.3
20260510063404 74 340 0.0 0.0 0.00 0.00 0.00 90 1017.3
20260510062404 74 339 0.0 0.0 0.00 0.00 0.00 90 1017.3
20260510061904 74 339 0.0 0.0 0.00 0.00 0.00 90 1017.6
20260510061404 74 339 0.0 0.0 0.00 0.00 0.00 90 1017.6
20260510060904 74 37 0.0 0.0 0.00 0.00 0.00 89 1017.6
20260510060404 74 347 0.0 0.0 0.00 0.00 0.00 89 1017.6
20260510055904 74 339 0.0 0.0 0.00 0.00 0.00 89 1017.6
20260510055404 74 343 0.0 2.6 0.00 0.00 0.00 89 1017.6
20260510054904 74 71 1.7 2.6 0.00 0.00 0.00 89 1017.9
20260510054404 74 342 0.0 0.0 0.00 0.00 0.00 88 1018.3
20260510053404 74 331 0.0 0.9 0.00 0.00 0.00 87 1018.3
20260510051904 74 337 0.0 0.0 0.00 0.00 0.00 86 1018.3
20260510050404 75 357 0.0 0.0 0.00 0.00 0.00 86 1018.3
20260510045404 75 167 0.0 1.7 0.00 0.00 0.00 85 1018.3
20260510044904 75 24 0.0 1.7 0.00 0.00 0.00 85 1018.3
20260510044404 75 344 0.0 1.7 0.00 0.00 0.00 85 1018.3
20260510043903 75 24 0.0 0.9 0.00 0.00 0.00 85 1018.3
20260510042907 75 340 0.0 0.0 0.00 0.00 0.00 84 1018.6
20260510042407 76 346 0.0 1.7 0.00 0.00 0.00 84 1018.6
20260510041907 76 0 0.0 1.7 0.00 0.00 0.00 84 1018.6
20260510041407 76 332 0.0 0.9 0.00 0.00 0.00 84 1018.6
20260510040907 76 345 0.0 0.0 0.00 0.00 0.00 84 1018.6
20260510040407 76 1 0.0 0.0 0.00 0.00 0.00 84 1018.6
20260510035407 76 339 0.0 1.7 0.00 0.00 0.00 83 1018.6
20260510034907 76 348 0.0 1.7 0.00 0.00 0.00 83 1018.3
20260510034406 76 351 0.0 1.7 0.00 0.00 0.00 83 1018.3
20260510033906 76 354 0.0 0.0 0.00 0.00 0.00 83 1018.3
20260510032407 76 349 0.9 1.7 0.00 0.00 0.00 83 1018.3
20260510031907 76 39 0.0 1.7 0.00 0.00 0.00 83 1018.3
20260510030907 76 353 0.0 1.7 0.00 0.00 0.00 83 1018.3
20260510030407 76 354 0.0 2.6 0.00 0.00 0.00 83 1018.3
20260510025407 76 93 0.9 1.7 0.00 0.00 0.00 83 1018.3
20260510024407 76 9 0.0 0.9 0.00 0.00 0.00 83 1018.3
20260510023406 76 357 0.0 2.6 0.00 0.00 0.00 84 1018.3
20260510022907 76 73 1.7 1.7 0.00 0.00 0.00 84 1018.3
20260510022407 76 32 0.0 1.7 0.00 0.00 0.00 85 1017.9
20260510021907 76 339 0.0 0.0 0.00 0.00 0.00 85 1017.9
20260510021407 76 338 0.0 0.9 0.00 0.00 0.00 84 1017.9
20260510020907 76 345 0.0 0.9 0.00 0.00 0.00 84 1017.9
20260510020407 77 345 0.0 0.0 0.00 0.00 0.00 84 1017.8
20260510015906 77 342 0.0 0.0 0.00 0.00 0.00 84 1017.6
20260510014907 77 335 0.0 0.0 0.00 0.00 0.00 83 1017.6
20260510014407 77 343 0.0 0.0 0.00 0.00 0.00 82 1017.6
20260510013907 77 334 0.0 0.0 0.00 0.00 0.00 82 1017.6
20260510013406 77 342 0.0 0.0 0.00 0.00 0.00 81 1017.3
20260510012907 77 339 0.0 0.0 0.00 0.00 0.00 81 1017.3
20260510012407 78 342 0.0 0.0 0.00 0.00 0.00 81 1017.3
20260510011907 78 342 0.0 0.0 0.00 0.00 0.00 80 1017.3
20260510011406 78 338 0.0 0.0 0.00 0.00 0.00 80 1017.3
20260510010407 78 337 0.0 0.0 0.00 0.00 0.00 79 1017.3
20260510005907 79 344 0.0 0.0 0.00 0.00 0.00 78 1016.9
20260510005406 79 336 0.0 0.0 0.00 0.00 0.00 78 1016.9
20260510004906 79 343 0.0 0.0 0.00 0.00 0.00 78 1016.9
20260510004406 79 339 0.0 0.0 0.00 0.00 0.00 78 1016.9
20260510003906 79 353 0.0 1.7 0.00 0.00 0.00 77 1016.9
20260510003406 79 351 0.0 1.7 0.00 0.00 0.00 77 1016.9
20260510002406 80 307 0.0 1.7 0.00 0.00 0.00 77 1016.9
20260510001906 80 297 0.0 1.7 0.00 0.00 0.00 76 1016.9
20260510001406 80 330 0.0 1.7 0.00 0.00 0.00 76 1016.6
20260510000907 80 299 0.9 1.7 0.00 0.00 0.00 75 1016.6
20260510000406 80 295 1.7 2.6 0.00 0.00 0.00 75 1016.6
20260509235907 80 307 1.7 2.6 0.00 0.00 0.00 74 1016.6
20260509235406 80 337 1.7 4.3 0.00 0.00 0.00 74 1016.3
20260509234906 81 335 1.7 4.3 0.00 0.00 0.00 74 1016.6
20260509234406 81 315 1.7 6.1 0.00 0.00 0.00 74 1016.6
20260509233906 81 314 4.3 7.0 0.00 0.00 0.00 73 1016.3
20260509233407 81 327 2.6 8.7 0.00 0.00 0.00 73 1016.3
20260509232906 81 339 4.3 8.7 0.00 0.00 0.00 73 1016.3
20260509232407 82 307 8.7 8.7 0.00 0.00 0.00 72 1016.3
20260509231907 82 285 4.3 6.1 0.00 0.00 0.00 72 1016.3
20260509230907 82 287 2.6 6.1 0.00 0.00 0.00 70 1016.3
20260509230406 82 280 7.0 7.0 0.00 0.00 0.00 70 1015.9
20260509225906 82 290 4.3 8.7 0.00 0.00 0.00 69 1016.1
20260509225406 83 301 6.1 11.3 0.00 0.00 0.00 68 1016.3
20260509224907 83 300 6.1 11.3 0.00 0.00 0.00 67 1016.2
20260509224406 83 278 5.2 10.4 0.00 0.00 0.00 65 1015.9
20260509223907 84 307 4.3 6.1 0.00 0.00 0.00 64 1015.9
20260509223406 84 262 6.1 7.0 0.00 0.00 0.00 62 1015.9
20260509222406 85 274 4.3 6.1 0.00 0.00 0.00 60 1015.6
20260509221406 85 323 7.0 7.0 0.00 0.00 0.00 58 1015.6
20260509220907 85 275 6.1 8.7 0.00 0.00 0.00 57 1015.6
20260509220406 86 303 4.3 8.7 0.00 0.00 0.00 55 1015.6
20260509215907 86 285 2.6 6.1 0.00 0.00 0.00 55 1015.2
20260509215406 87 307 6.1 6.1 0.00 0.00 0.00 56 1015.2
20260509214907 87 21 6.1 6.1 0.00 0.00 0.00 56 1015.2
20260509213906 89 270 5.2 8.7 0.00 0.00 0.00 53 1014.9
20260509213406 90 312 6.1 8.7 0.00 0.00 0.00 51 1014.9
20260509212906 90 303 5.2 8.7 0.00 0.00 0.00 52 1014.9
20260509212406 90 314 3.5 6.1 0.00 0.00 0.00 51 1014.9
20260509211906 91 328 4.3 5.2 0.00 0.00 0.00 51 1014.9
20260509211406 90 319 7.0 10.4 0.00 0.00 0.00 50 1014.9
20260509210906 90 309 8.7 10.4 0.00 0.00 0.00 50 1014.9
20260509210406 91 305 6.1 10.4 0.00 0.00 0.00 51 1014.9
20260509205906 91 307 3.5 10.4 0.00 0.00 0.00 52 1014.9
20260509205406 91 298 5.2 7.8 0.00 0.00 0.00 52 1014.9
20260509204906 90 295 2.6 10.4 0.00 0.00 0.00 52 1014.9
20260509204406 90 351 5.2 12.2 0.00 0.00 0.00 51 1014.9
20260509203906 91 306 7.0 12.2 0.00 0.00 0.00 50 1014.9
20260509203406 91 293 2.6 8.7 0.00 0.00 0.00 50 1014.6
20260509202906 90 288 4.3 8.7 0.00 0.00 0.00 50 1014.6
20260509202406 91 308 6.1 8.7 0.00 0.00 0.00 49 1014.9
20260509201905 92 295 6.1 10.4 0.00 0.00 0.00 48 1014.9
20260509201406 92 259 8.7 10.4 0.00 0.00 0.00 49 1014.9
20260509200906 92 291 7.0 10.4 0.00 0.00 0.00 48 1014.9
20260509200406 94 316 5.2 7.0 0.00 0.00 0.00 46 1014.9
20260509195905 94 315 3.5 7.0 0.00 0.00 0.00 47 1014.9
20260509195406 93 164 2.6 5.2 0.00 0.00 0.00 48 1014.9
20260509194906 93 220 5.2 7.0 0.00 0.00 0.00 48 1014.9
20260509194405 92 259 4.3 10.4 0.00 0.00 0.00 47 1014.9